TSURU (47927 NORAD) Tracking and Keplerian Element Data

This shows tracking and keplerian element data for the satellite.

Feedback or suggestion? Click here.




ElementValue
Catalog47927
NameTSURU
Epoch Orbit7422
Epoch Day183.53492232
Epoch Year2022
RAAN219.9014
Inclination51.6202
Eccentricity0.000895
Argument of Perigee356.9093
Mean Anonmoly3.1868
Mean Motion16.18879993
Decay Rate0.01900342
L11 47927U 98067SD 22183.53492232 .01900342 11841-4 10329-2 0 9990
L22 47927 51.6202 219.9014 0008950 356.9093 3.1868 16.18879993 74222



Live tracking and technical data element details for TSURU (NORAD 47927). TSURU can be tracked NOW for your location showing map with azimuth and elevation plus other details from your city location.







IsCatalogInMostPopularTable: catalog: 47927, numindb: 108
Update: records affected: 1



GetName: 47927 TSURU

Hit Count: updated at: Mon, 28 Nov 2022 04:48:53 GMT